Regional Weather Roundup
Issued by NWS Albany, NY

Home | Current Version | Previous Version | Graphics & Text | Print | Product List | Glossary Off
Versions: 1 2 3 4 5 6 7 8 9 10 11 12 13 14 15 16 17 18 19 20 21 22 23 24 25 26 27 28 29 30 31 32 33 34 35 36 37 38 39 40 41 42 43 44 45 46 47 48 49

000
ASUS41 KALY 211610
RWRALY

NEW YORK STATE HOURLY WEATHER ROUNDUP
NATIONAL WEATHER SERVICE ALBANY NY
1100 AM EST SUN DEC 21 2014

NOTE: "FAIR" INDICATES FEW OR NO CLOUDS BELOW 12,000 FEET WITH NO
SIGNIFICANT WEATHER AND/OR NO OBSTRUCTIONS TO VISIBILITY.

NYZ032-033-038>043-046>054-057>066-NYZ062>081-211700-
EAST


CITY           SKY/WX    TMP DP  RH WIND       PRES   REMARKS
ALBANY         FLURRIES  29  23  78 N5        30.36S WCI  24
GLENS FALLS    CLOUDY    25  22  88 CALM      30.36S FOG
POUGHKEEPSIE   LGT SNOW  31  26  82 NW7       30.34S WCI  24
NEWBURGH       LGT SNOW  28  27  93 VRB5      30.33S WCI  23
MONTGOMERY     CLOUDY    31  26  82 NE5       30.31F WCI  26
WHITE PLAINS   CLOUDY    31  26  82 NW8       30.29S WCI  23
ISLIP          CLOUDY    34  28  79 W8        30.28S WCI  27
NEW YORK CITY  CLOUDY    33  27  78 NW9       30.32S WCI  25
CENTRAL PARK   CLOUDY    32  24  72 NW7       30.33F WCI  26
$$

NYZ005>009-017-018-044>046-055-056-211700-
CENTRAL


CITY           SKY/WX    TMP DP  RH WIND       PRES   REMARKS
FULTON         CLOUDY    30  24  78 S7        30.33S HAZE    WCI  23
SYRACUSE       FLURRIES  30  24  78 SW5       30.34S WCI  25
ROME           CLOUDY    29  22  75 SE3       30.36S
ELMIRA         CLOUDY    31  23  72 SW5       30.31S WCI  26
BINGHAMTON     CLOUDY    27  20  75 CALM      30.26S
MONTICELLO     CLOUDY    27  27 100 W6        30.27F WCI  20
$$

NYZ026>034-041>043-211700-
NORTH


CITY           SKY/WX    TMP DP  RH WIND       PRES   REMARKS
WATERTOWN      CLOUDY    30  22  72 NE3       30.33F
FORT DRUM      NOT AVBL
MASSENA        CLOUDY    18  15  88 E6        30.39S FOG     WCI  10
SARANAC LAKE   CLOUDY    20  18  92 CALM      30.24S
PLATTSBURGH    CLOUDY    20  18  92 CALM      30.37F FOG
$$

NYZ001>004-010>016-019>021-211700-
WEST


CITY           SKY/WX    TMP DP  RH WIND       PRES   REMARKS
NIAGARA FALLS  MOSUNNY   32  24  72 NW6       30.31F WCI  26
BUFFALO        MOSUNNY   32  22  66 W3        30.31F
DUNKIRK        CLOUDY    32  22  66 W5        30.32S WCI  27
JAMESTOWN      CLOUDY    27  21  80 CALM      30.27S
WELLSVILLE     CLOUDY    26  22  84 W6        30.25S WCI  19
ROCHESTER      MOSUNNY   34  24  67 W6        30.32F WCI  29
PENN YAN       MOSUNNY   32  22  66 CALM      30.31S
$$

             KEY
       WCI = WIND CHILL INDEX
       VSB = VISIBILITY
       HX  = HEAT INDEX
$$


USA.gov is the U.S. government's official web portal to all federal, state and local government web resources and services.